Location: Chilton Park
(37.7711°N, 100.0276°W)
Time: 00:33:09
(UTC+00:00)

Cosmos 1500 Rocket - Pass Details

Date: 28 June 2022
Orbit: 601 x 632 km, 82.5° (Epoch: 16 August)

Event Time Altitude Azimuth Distance (km) Brightness Sun altitude
Exits shadow 09:43:26 - 160° (SSE) 2,474 6.4 -15.8°
Reaches altitude 10° 09:44:46 10° 153° (SSE) 1,979 5.9 -15.6°
Maximum altitude 09:48:41 32° 90° (E) 1,070 5.2 -15.0°
Drops below altitude 10° 09:52:38 10° 28° (NNE) 2,008 7.4 -14.5°
Sets 09:55:03 0° 18° (NNE) 2,923 8.2 -14.2°
